Orbital Elements at Epoch 2459000.5 (2020-May-31.0) TDB
Reference: JPL 20 (heliocentric ecliptic J2000)
Element | Value | Uncertainty (1-sigma) | Units |
e | .09310626746020981 | 5.1287e-08 | |
a | 3.072873776639651 | 2.94e-08 | au |
q | 2.786769968920375 | 1.6055e-07 | au |
i | 14.84949910987753 | 4.5332e-06 | deg |
node | 141.0818262905417 | 2.5204e-05 | deg |
peri | 295.6737742827145 | 4.0118e-05 | deg |
M | 138.0210106416969 | 3.2046e-05 | deg |
tp | 2458246.175504208386 (2018-May-07.67550421) | 0.00017117 | TDB |
period | 1967.503478075114 5.39 | 2.8236e-05 7.731e-08 | d yr |
n | .1829729929383414 | 2.6259e-09 | deg/d |
Q | 3.358977584358928 | 3.2137e-08 | au |
|
| | Orbit Determination Parameters
Additional Information
|